Location: Haliburton Scout Reserve
(45.0900°N, 78.3200°W)
Time: 12:58:21
(UTC-04:00)

IDEFIX/ARIANE 42P - Visible Passes

Search period start: 29 September 2016 00:00
Search period end: 09 October 2016 00:00
Orbit: 786 x 802 km, 98.2° (Epoch: 29 September)

Date Brightness Start Highest point End Pass type
(mag) Time Alt. Az. Time Alt. Az. Time Alt. Az.
29 Sep 5.8 20:29:24 10° WSW 20:31:44 13° W 20:34:04 10° WNW visible
30 Sep 5.2 19:58:57 10° SW 20:03:03 23° W 20:07:13 10° NW visible
01 Oct 5.9 06:30:34 10° NE 06:33:50 16° E 06:37:05 10° SE visible
01 Oct 4.2 19:29:37 10° SSW 19:34:31 40° W 19:39:29 10° NNW visible
03 Oct 5.6 20:14:31 10° SW 20:17:53 17° W 20:21:17 10° NW visible
04 Oct 5.6 06:44:36 10° NE 06:48:40 22° E 06:52:42 10° SE visible
04 Oct 4.8 19:44:43 10° SSW 19:49:17 30° W 19:53:53 10° NNW visible
05 Oct 6.2 06:17:53 10° ENE 06:20:00 12° E 06:22:06 10° ESE visible
05 Oct 3.6 19:15:42 10° S 19:20:48 52° W 19:25:58 10° NNW visible
06 Oct 5.9 20:30:38 10° WSW 20:32:45 12° W 20:34:53 10° WNW visible
07 Oct 5.2 20:00:03 10° SW 20:04:04 22° W 20:08:10 10° NW visible
08 Oct 5.9 06:31:28 10° NE 06:34:52 17° E 06:38:14 10° SE visible
08 Oct 4.2 19:30:39 10° SSW 19:35:32 39° W 19:40:28 10° NNW visible
